Location: Bonneuil
(46.1010°N, 2.9693°E)
Time: 13:30:25
(UTC+00:00)

ASTEX 1 - Pass Details

Date: 09 April 2020
Orbit: 720 x 743 km, 92.7° (Epoch: 27 May)

Event Time Altitude Azimuth Distance (km) Brightness Sun altitude
Exits shadow 21:49:59 46° 16° (NNE) 988 4.2 -29.7°
Drops below altitude 10° 21:53:33 10° 359° (N) 2,250 6.6 -30.0°
Sets 21:55:52 0° 357° (N) 3,173 7.5 -30.2°
